International Skating Union - Official Site

ISU World Cup Nagano
November 18-20, 2016

Draw | Lap Times | Index | World Cup

Referee: Erik  ØSMUNDSET  (NOR)
Starter: Sung-Yeol  JAEGAL  (KOR)
StartTime: EndTime: Air Temp: Ice Temp: Humidity:
15:25 15:50 16.0 ℃ -6.9 ℃ 57.0%
Result Team Pursuit Ladies
Rankings as of Nov 20 2016 5:52PM
Rank: No.: Team: Nation: Time: Behind: Points:
Total 9
1 2 Netherlands (266) Marrit Leenstra (261) Antoinette de Jong (264) Marije Joling (272) Ireen Wüst NED NED 2:58.690.5 - 18.77 - (18.7)
1.0 - 33.03 - (14.2)
1.5 - 47.35 - (14.3)
2.0 - 1:01.53 - (14.1)
2.5 - 1:15.97 - (14.4)
3.0 - 1:30.24 - (14.2)
3.5 - 1:44.59 - (14.3)
4.0 - 1:59.23 - (14.6)
4.5 - 2:13.85 - (14.6)
5.0 - 2:28.72 - (14.8)
5.5 - 2:43.67 - (14.9)
6.0 - 2:58.69 - (15.0)
100
2 1 Japan (247) Miho Takagi (248) Nana Takagi (245) Ayano Sato (244) Misaki Oshigiri JPN JPN 2:59.740.5 - 18.73 - (18.7)
1.0 - 33.17 - (14.4)
1.5 - 47.64 - (14.4)
2.0 - 1:02.03 - (14.3)
2.5 - 1:16.29 - (14.2)
3.0 - 1:30.76 - (14.4)
3.5 - 1:45.43 - (14.6)
4.0 - 2:00.25 - (14.8)
4.5 - 2:15.02 - (14.7)
5.0 - 2:29.88 - (14.8)
5.5 - 2:44.70 - (14.8)
6.0 - 2:59.74 - (15.0)
1.05 80
3 3 Russia (288) Natalya Voronina (285) Elizaveta Kazelina (284) Olga Graf (287) Yekaterina Shikhova RUS RUS 3:02.800.5 - 19.31 - (19.3)
1.0 - 33.69 - (14.3)
1.5 - 48.11 - (14.4)
2.0 - 1:02.60 - (14.4)
2.5 - 1:17.38 - (14.7)
3.0 - 1:32.20 - (14.8)
3.5 - 1:47.27 - (15.0)
4.0 - 2:02.18 - (14.9)
4.5 - 2:17.23 - (15.0)
5.0 - 2:32.53 - (15.3)
5.5 - 2:47.72 - (15.1)
6.0 - 3:02.80 - (15.0)
4.11 70
4 5 Germany (236) Claudia Pechstein (232) Roxanne Dufter (233) Gabriele Hirschbichler (234) Bente Kraus GER GER 3:04.720.5 - 19.25 - (19.2)
1.0 - 33.71 - (14.4)
1.5 - 48.00 - (14.2)
2.0 - 1:02.50 - (14.5)
2.5 - 1:17.20 - (14.7)
3.0 - 1:32.30 - (15.0)
3.5 - 1:47.18 - (14.8)
4.0 - 2:02.15 - (14.9)
4.5 - 2:17.66 - (15.5)
5.0 - 2:33.49 - (15.8)
5.5 - 2:49.23 - (15.7)
6.0 - 3:04.72 - (15.5)
6.03 60
5 7 Korea (257) Ji-Woo Park (256) Seon-Yeong Noh (252) Bo-Reum Kim KOR KOR 3:05.010.5 - 19.50 - (19.5)
1.0 - 34.35 - (14.8)
1.5 - 48.99 - (14.6)
2.0 - 1:03.53 - (14.5)
2.5 - 1:18.22 - (14.6)
3.0 - 1:33.17 - (14.9)
3.5 - 1:48.18 - (15.0)
4.0 - 2:03.27 - (15.0)
4.5 - 2:18.62 - (15.3)
5.0 - 2:33.92 - (15.2)
5.5 - 2:49.36 - (15.4)
6.0 - 3:05.01 - (15.6)
6.32 50
6 4 Poland (275) Katarzyna Bachleda-Curus (279) Luiza Zlotkowska (278) Katarzyna Wozniak (276) Natalia Czerwonka POL POL 3:05.690.5 - 19.26 - (19.2)
1.0 - 33.84 - (14.5)
1.5 - 48.18 - (14.3)
2.0 - 1:02.79 - (14.6)
2.5 - 1:17.52 - (14.7)
3.0 - 1:32.46 - (14.9)
3.5 - 1:47.21 - (14.7)
4.0 - 2:02.36 - (15.1)
4.5 - 2:17.51 - (15.1)
5.0 - 2:33.15 - (15.6)
5.5 - 2:49.26 - (16.1)
6.0 - 3:05.69 - (16.4)
7.00 45
7 6 China (214) Mei Han (219) Jing Liu (215) Jiachen Hao CHN CHN 3:07.060.5 - 19.09 - (19.0)
1.0 - 33.73 - (14.6)
1.5 - 48.36 - (14.6)
2.0 - 1:03.34 - (14.9)
2.5 - 1:18.18 - (14.8)
3.0 - 1:33.24 - (15.0)
3.5 - 1:48.30 - (15.0)
4.0 - 2:03.90 - (15.6)
4.5 - 2:19.90 - (16.0)
5.0 - 2:36.22 - (16.3)
5.5 - 2:51.64 - (15.4)
6.0 - 3:07.06 - (15.4)
8.37 40
8 8 Czech Republic (229) Martina Sábliková (230) Nikola Zdráhalová (228) Natalie Kerschbaummayr (227) Eliska Drimalova CZE CZE 3:08.530.5 - 19.75 - (19.7)
1.0 - 35.04 - (15.2)
1.5 - 50.05 - (15.0)
2.0 - 1:05.09 - (15.0)
2.5 - 1:20.14 - (15.0)
3.0 - 1:35.27 - (15.1)
3.5 - 1:50.49 - (15.2)
4.0 - 2:05.81 - (15.3)
4.5 - 2:21.19 - (15.3)
5.0 - 2:36.77 - (15.5)
5.5 - 2:52.61 - (15.8)
6.0 - 3:08.53 - (15.9)
9.84 35
9 9 USA (291) Kelly Gunther (292) Mia Manganello (293) Paige Schwartzburg (290) Heather Bergsma USA USA 3:11.120.5 - 19.62 - (19.6)
1.0 - 34.50 - (14.8)
1.5 - 49.22 - (14.7)
2.0 - 1:03.97 - (14.7)
2.5 - 1:18.79 - (14.8)
3.0 - 1:33.67 - (14.8)
3.5 - 1:49.15 - (15.4)
4.0 - 2:05.17 - (16.0)
4.5 - 2:21.55 - (16.3)
5.0 - 2:37.86 - (16.3)
5.5 - 2:54.12 - (16.2)
6.0 - 3:11.12 - (17.0)
12.43 30